Corinth, MS

2:38 AM CDT on October 19, 2017 (GMT -0500)
Turner

Weather History for KCRX - November, 2013

Change the Weather History Date:

Friday, November 15, 2013

  Actual Average Record
Temperature  
Mean Temperature 45 °F -  
Max Temperature 57 °F 62 °F 82 °F (1955)
Min Temperature 33 °F 39 °F 17 °F (1940)
Degree Days  
Heating Degree Days 20    
Moisture  
Dew Point 43 °F    
Average Humidity 83    
Maximum Humidity 94    
Minimum Humidity 71    
Precipitation  
Precipitation 0.02 in - - ()
Sea Level Pressure  
Sea Level Pressure 30.13 in    
Wind  
Wind Speed 3 mph (SSE)    
Max Wind Speed 10 mph    
Max Gust Speed 16 mph    
Visibility 10 miles    
Events Rain    
Averages and records for this station are not official NWS values.
T = Trace of Precipitation, MM = Missing Value Source: NWS Daily Summary

Daily Weather History Graph

Daily Weather History Graph

Search for Another Location

Airport or City:

Trip Planner

Search our weather history database for the weather conditions in past years. The results will help you decide how hot, cold, wet, or windy it might be!

Date:

Astronomy

Nov. 15, 2013 Rise Set
Actual Time 6:28 AM CST 4:48 PM CST
Civil Twilight 6:02 AM CST 5:15 PM CST
Nautical Twilight 5:31 AM CST 5:46 PM CST
Astronomical Twilight 5:01 AM CST 6:16 PM CST
Moon 3:42 PM CST (11/15) 4:29 AM CST (11/15)
Length of Visible Light 11h 13m
Length of Day
10h 19m
Waxing Gibbous, 96% of the Moon is Illuminated
Nov 15
Waxing Gibbous
Nov 17
Full
Nov 25
Last Quarter
Dec 2
New
Dec 9
First Quarter

Hourly Weather History & Observations

Time (CST) Temp. Windchill Dew Point Humidity Pressure Visibility Wind Dir Wind Speed Gust Speed Precip Events Conditions
12:30 AM 33.8 °F - 30.2 °F 87% 30.18 in 10.0 mi Calm Calm - N/A   Scattered Clouds
12:50 AM 33.8 °F - 32.0 °F 93% 30.18 in 10.0 mi Calm Calm - N/A   Partly Cloudy
1:10 AM 35.6 °F 32.8 °F 30.2 °F 81% 30.18 in 10.0 mi SE 3.5 mph - N/A   Mostly Cloudy
1:30 AM 33.8 °F - 30.2 °F 87% 30.17 in 10.0 mi Calm Calm - N/A   Mostly Cloudy
1:50 AM 35.6 °F 32.8 °F 32.0 °F 87% 30.18 in 10.0 mi SSE 3.5 mph - N/A   Mostly Cloudy
2:10 AM 35.6 °F 31.7 °F 32.0 °F 87% 30.17 in 10.0 mi SSE 4.6 mph - N/A   Mostly Cloudy
2:30 AM 35.6 °F 32.8 °F 32.0 °F 87% 30.17 in 10.0 mi SE 3.5 mph - N/A   Mostly Cloudy
2:50 AM 37.4 °F - 32.0 °F 81% 30.17 in 10.0 mi Calm Calm - N/A   Scattered Clouds
3:10 AM 35.6 °F - 32.0 °F 87% 30.17 in 10.0 mi Calm Calm - N/A   Mostly Cloudy
3:30 AM 37.4 °F - 32.0 °F 81% 30.17 in 10.0 mi Calm Calm - N/A   Mostly Cloudy
3:50 AM 37.4 °F - 32.0 °F 81% 30.17 in 10.0 mi Calm Calm - N/A   Mostly Cloudy
4:10 AM 37.4 °F - 32.0 °F 81% 30.18 in 10.0 mi Calm Calm - N/A   Mostly Cloudy
4:30 AM 37.4 °F - 32.0 °F 81% 30.17 in 10.0 mi Calm Calm - N/A   Overcast
4:50 AM 39.2 °F - 32.0 °F 75% 30.18 in 10.0 mi Calm Calm - N/A   Overcast
5:10 AM 39.2 °F - 33.8 °F 81% 30.18 in 10.0 mi Calm Calm - N/A   Mostly Cloudy
5:30 AM 39.2 °F - 35.6 °F 87% 30.18 in 10.0 mi Calm Calm - N/A   Scattered Clouds
5:50 AM 39.2 °F - 35.6 °F 87% 30.18 in 10.0 mi Calm Calm - N/A   Mostly Cloudy
6:10 AM 39.2 °F - 35.6 °F 87% 30.18 in 10.0 mi Calm Calm - N/A   Mostly Cloudy
6:30 AM 39.2 °F - 37.4 °F 93% 30.18 in 10.0 mi Calm Calm - N/A   Mostly Cloudy
6:50 AM 41.0 °F - 37.4 °F 87% 30.18 in 10.0 mi Calm Calm - N/A   Mostly Cloudy
7:10 AM 41.0 °F - 35.6 °F 81% 30.19 in 10.0 mi Calm Calm - N/A   Overcast
7:30 AM 42.8 °F - 35.6 °F 76% 30.19 in 10.0 mi Calm Calm - N/A   Overcast
7:50 AM 42.8 °F - 35.6 °F 76% 30.19 in 10.0 mi Calm Calm - N/A   Mostly Cloudy
8:10 AM 44.6 °F 43.1 °F 35.6 °F 71% 30.19 in 10.0 mi ESE 3.5 mph - N/A   Mostly Cloudy
8:30 AM 44.6 °F - 37.4 °F 76% 30.19 in 10.0 mi Calm Calm - N/A   Mostly Cloudy
8:50 AM 46.4 °F - 37.4 °F 71% 30.18 in 10.0 mi Calm Calm - N/A   Mostly Cloudy
9:10 AM 46.4 °F - 37.4 °F 71% 30.18 in 10.0 mi Calm Calm - N/A   Mostly Cloudy
9:30 AM 48.2 °F - 39.2 °F 71% 30.19 in 10.0 mi Calm Calm - N/A   Mostly Cloudy
9:50 AM 50.0 °F - 41.0 °F 71% 30.19 in 8.0 mi South 6.9 mph - N/A Rain Light Rain
10:10 AM 48.2 °F - 42.8 °F 82% 30.18 in 5.0 mi SSE 3.5 mph - N/A Rain Light Rain
10:30 AM 48.2 °F - 44.6 °F 87% 30.18 in 7.0 mi SSE 9.2 mph - 0.01 in Rain Light Rain
10:50 AM 48.2 °F - 44.6 °F 87% 30.16 in 5.0 mi SSE 9.2 mph - 0.02 in   Scattered Clouds
11:10 AM 50.0 °F - 44.6 °F 82% 30.14 in 10.0 mi SE 8.1 mph - N/A   Mostly Cloudy
11:30 AM 50.0 °F - 46.4 °F 87% 30.13 in 9.0 mi SSE 6.9 mph - N/A Rain Light Rain
11:50 AM 50.0 °F - 46.4 °F 87% 30.14 in 10.0 mi South 5.8 mph - N/A Rain Light Rain
12:10 PM 50.0 °F - 46.4 °F 87% 30.12 in 10.0 mi ESE 4.6 mph - N/A   Overcast
12:30 PM 50.0 °F - 46.4 °F 87% 30.11 in 10.0 mi SE 5.8 mph - N/A   Overcast
12:50 PM 53.6 °F - 48.2 °F 82% 30.11 in 10.0 mi SSE 6.9 mph - N/A   Overcast
1:10 PM 53.6 °F - 48.2 °F 82% 30.09 in 10.0 mi SSE 6.9 mph - N/A   Overcast
1:30 PM 55.4 °F - 48.2 °F 77% 30.09 in 10.0 mi SSE 10.4 mph - N/A   Scattered Clouds
1:50 PM 55.4 °F - 48.2 °F 77% 30.08 in 10.0 mi South 8.1 mph - N/A   Mostly Cloudy
2:10 PM 57.2 °F - 50.0 °F 77% 30.07 in 10.0 mi SSE 8.1 mph - N/A   Scattered Clouds
2:30 PM 55.4 °F - 50.0 °F 82% 30.06 in 10.0 mi South 8.1 mph - N/A   Mostly Cloudy
2:50 PM 55.4 °F - 50.0 °F 82% 30.05 in 10.0 mi South 8.1 mph - N/A   Overcast
3:10 PM 57.2 °F - 50.0 °F 77% 30.05 in 10.0 mi South 9.2 mph - N/A   Overcast
3:30 PM 55.4 °F - 50.0 °F 82% 30.06 in 10.0 mi South 8.1 mph - N/A   Overcast
3:50 PM 55.4 °F - 50.0 °F 82% 30.05 in 10.0 mi SE 5.8 mph - N/A   Overcast
4:10 PM 55.4 °F - 50.0 °F 82% 30.06 in 10.0 mi South 6.9 mph - N/A   Overcast
4:30 PM 55.4 °F - 50.0 °F 82% 30.06 in 10.0 mi SSE 4.6 mph - N/A   Overcast
4:50 PM 55.4 °F - 50.0 °F 82% 30.07 in 10.0 mi SSE 5.8 mph - N/A   Overcast
5:10 PM 55.4 °F - 50.0 °F 82% 30.07 in 10.0 mi SSE 4.6 mph - N/A   Overcast
5:30 PM 55.4 °F - 50.0 °F 82% 30.08 in 10.0 mi SSE 6.9 mph - N/A   Overcast
5:50 PM 55.4 °F - 50.0 °F 82% 30.08 in 10.0 mi SSE 5.8 mph - N/A   Overcast
6:10 PM 53.6 °F - 50.0 °F 88% 30.09 in 10.0 mi South 8.1 mph - N/A   Overcast
6:30 PM 53.6 °F - 50.0 °F 88% 30.08 in 10.0 mi SSE 6.9 mph - N/A   Overcast
6:50 PM 53.6 °F - 50.0 °F 88% 30.08 in 10.0 mi ESE 4.6 mph - N/A   Overcast
7:10 PM 53.6 °F - 50.0 °F 88% 30.08 in 10.0 mi SE 4.6 mph - N/A   Overcast
7:30 PM 53.6 °F - 50.0 °F 88% 30.09 in 10.0 mi SSE 4.6 mph - N/A   Overcast
7:50 PM 53.6 °F - 50.0 °F 88% 30.10 in 10.0 mi SE 4.6 mph - N/A   Overcast
8:10 PM 53.6 °F - 50.0 °F 88% 30.11 in 10.0 mi SSE 6.9 mph - N/A   Overcast
8:30 PM 55.4 °F - 50.0 °F 82% 30.11 in 10.0 mi SSE 8.1 mph - N/A   Overcast
8:50 PM 55.4 °F - 50.0 °F 82% 30.11 in 10.0 mi SE 6.9 mph - N/A   Overcast
9:10 PM 55.4 °F - 50.0 °F 82% 30.10 in 10.0 mi SSE 8.1 mph - N/A   Overcast
9:30 PM 55.4 °F - 50.0 °F 82% 30.10 in 10.0 mi SE 10.4 mph - N/A   Overcast
9:50 PM 55.4 °F - 50.0 °F 82% 30.10 in 10.0 mi SE 8.1 mph - N/A   Overcast
10:10 PM 55.4 °F - 50.0 °F 82% 30.09 in 10.0 mi SSE 9.2 mph - N/A   Overcast
10:30 PM 55.4 °F - 50.0 °F 82% 30.09 in 10.0 mi SSE 9.2 mph - N/A   Overcast
10:50 PM 53.6 °F - 50.0 °F 88% 30.10 in 10.0 mi SSE 9.2 mph 16.1 mph N/A   Overcast
11:10 PM 53.6 °F - 50.0 °F 88% 30.09 in 10.0 mi SSE 8.1 mph - N/A   Overcast
11:30 PM 53.6 °F - 50.0 °F 88% 30.09 in 9.0 mi SSE 9.2 mph - N/A   Overcast
11:50 PM 53.6 °F - 51.8 °F 94% 30.09 in 8.0 mi South 9.2 mph - N/A   Overcast